Location: Danville Conservation Area
(38.8674°N, 91.5143°W)
Time: 00:26:23
(UTC-06:00)

Envisat - Pass Details

Date: 29 November 2021
Orbit: 764 x 766 km, 98.2° (Epoch: 23 January)

Event Time Altitude Azimuth Distance (km) Brightness Sun altitude
Rises 05:59:51 0° 1° (N) 3,240 6.1 -12.3°
Reaches altitude 10° 06:02:25 10° 350° (N) 2,310 5.2 -11.9°
Maximum altitude 06:06:44 29° 292° (WNW) 1,384 3.8 -11.1°
Drops below altitude 10° 06:11:02 10° 233° (SW) 2,296 5.1 -10.3°
Sets 06:13:35 0° 223° (SW) 3,218 6.0 -9.8°
